Temp
76 78 80 77 68 68 66 69 75 75 78 84 84 82 82 83 79 77 86 86 88 87 83 82 78 78 79 78 78 77 77 77 77 77 77 77 77 77 77 76 76 77 77 77 77 77 77 78 78
79 77 81 78 66 58 67 72 73 79 83 85 84 83 81 82 86 88 88 85 88 86 82 84 78 78 78 78 78 77 77 77 77 77 77 77 77 77 77 77 77 77 77 78 78 78 77 77 78
79 82 78 74 67 64 70 74 78 80 83 81 83 85 84 84 86 88 92 85 86 84 84 83 78 78 78 78 78 77 77 77 77 77 77 78 77 77 77 77 77 77 78 79 78 78 78 78 77
82 82 77 67 65 68 70 77 77 80 84 83 84 82 85 90 88 91 90 87 86 86 85 82 78 78 78 78 78 77 77 77 77 77 77 77 77 77 76 76 77 77 78 78 79 79 79 78 77
83 80 70 63 64 70 74 79 78 78 79 83 83 81 83 88 89 88 87 87 87 86 86 84 78 77 78 78 78 77 77 77 77 77 77 77 77 76 76 76 76 77 77 77 78 78 78 78 77
76 77 65 63 66 71 76 81 79 79 81 83 81 81 85 88 87 89 87 86 89 84 83 83 79 77 77 77 77 77 76 76 76 77 77 77 76 76 76 75 75 76 76 77 77 76 77 76 76
73 71 66 64 66 70 74 82 78 81 80 82 85 79 86 90 90 86 86 87 85 84 82 82 83 80 77 77 77 76 76 76 76 76 76 76 75 75 75 75 75 75 75 75 75 76 75 75 75
76 74 64 66 66 69 77 79 82 81 80 86 86 80 81 90 86 84 84 86 84 83 84 82 82 84 82 82 77 76 76 76 75 75 75 75 75 75 74 73 73 73 73 74 74 75 75 75 74
74 68 65 66 66 74 79 78 80 84 82 84 86 86 90 88 81 82 81 82 84 82 82 82 83 83 82 83 81 77 77 76 75 76 75 75 79 78 77 75 72 73 73 73 74 74 74 74 75
72 66 67 74 77 75 77 76 77 77 79 80 82 87 88 87 84 83 81 82 81 82 81 82 81 81 81 82 80 81 81 81 80 79 77 78 77 75 75 74 71 72 73 73 73 73 73 74 79
72 66 73 75 78 77 76 76 81 76 74 81 79 83 87 88 84 82 85 86 86 85 83 80 78 79 80 80 80 80 79 79 77 75 75 75 75 75 75 75 75 75 73 75 75 75 77 77 78
67 73 75 77 79 76 74 78 73 77 78 84 84 85 85 84 84 83 84 85 85 84 82 80 78 76 77 79 78 79 78 76 76 76 74 73 74 73 72 74 75 72 74 72 73 75 73 74 75
66 72 75 76 76 76 76 72 72 75 80 85 85 83 83 84 84 84 84 86 86 82 81 78 77 75 75 74 77 76 75 76 77 75 74 74 74 72 73 72 73 73 75 73 73 73 73 73 74
76 72 73 76 75 75 72 73 75 76 82 82 82 82 84 85 85 84 80 79 80 79 78 77 75 75 75 74 73 74 74 76 75 75 74 72 73 71 73 72 73 73 73 73 73 73 72 73 72
72 66 70 70 72 71 74 68 70 79 82 79 80 82 83 84 86 82 83 78 79 79 77 73 74 74 73 73 74 74 76 75 74 74 72 72 71 71 70 72 72 72 71 71 71 71 71 71 72
65 66 61 72 72 73 71 64 77 82 79 78 79 80 80 82 85 86 84 80 79 78 72 74 76 73 72 72 74 75 75 74 73 73 73 72 71 71 70 71 71 72 71 72 72 72 71 71 72
61 57 57 64 71 71 70 68 77 80 77 75 77 79 80 82 83 82 82 82 77 73 73 73 73 73 72 72 74 73 72 73 73 73 74 72 71 71 70 71 72 70 71 70 70 70 70 69 69
55 54 59 59 69 70 69 67 74 75 75 74 76 78 79 79 81 84 81 79 73 72 72 72 72 72 72 73 71 72 72 73 74 73 73 72 72 71 70 70 68 70 69 70 69 67 69 69 68
63 61 60 66 70 67 67 66 68 74 75 75 75 76 77 78 82 77 75 72 70 71 70 70 70 70 71 72 72 72 72 74 73 73 72 72 72 71 70 66 67 68 68 68 68 67 67 68 68
60 58 59 65 68 66 66 65 70 72 73 76 76 76 77 79 80 75 69 69 70 69 70 70 70 69 71 73 72 75 74 74 74 73 72 72 72 71 70 68 68 68 68 66 66 66 66 66 68
58 56 58 59 65 67 64 61 66 74 74 76 77 78 78 77 77 73 68 68 69 68 69 70 70 70 71 72 72 71 71 72 72 73 73 72 71 70 69 68 68 68 68 67 66 66 66 67 68
53 63 62 60 57 53 64 51 62 68 69 73 76 77 78 79 75 71 68 67 68 70 72 72 71 70 71 71 72 70 72 72 72 71 72 71 70 70 70 69 70 69 70 68 68 68 68 68 66
58 65 61 60 57 57 58 52 60 66 65 70 75 79 79 76 74 70 69 68 70 71 71 71 71 71 71 70 72 72 71 72 71 71 68 69 70 71 70 70 70 69 70 69 68 67 67 70 67
66 63 62 60 58 46 55 54 55 62 66 72 76 79 75 70 68 68 69 70 70 73 72 71 71 70 71 71 71 71 70 69 70 69 70 70 70 70 70 70 70 69 69 69 69 69 68 69 67
63 58 47 44 44 44 59 54 54 68 72 72 75 79 73 68 67 67 68 70 70 70 71 72 72 70 71 71 71 71 70 68 68 69 70 68 67 68 69 69 69 71 70 70 70 69 69 69 68
58 57 50 39 41 50 56 49 56 71 75 75 77 77 72 68 68 69 70 71 71 71 71 72 72 71 71 72 72 71 70 72 72 70 70 69 69 70 69 70 71 71 71 70 70 71 71 69 70
58 54 63 54 53 52 54 57 63 70 71 73 74 70 68 67 67 68 70 71 72 71 71 72 72 72 72 72 71 71 70 68 70 68 68 70 68 69 69 70 70 71 71 70 70 70 69 68 67
64 66 51 55 43 41 51 52 58 65 69 74 72 69 66 66 67 69 70 71 72 72 72 72 73 73 73 73 72 72 71 70 70 69 67 68 68 69 70 70 71 70 70 67 66 64 67 67 67
59 57 58 59 55 46 46 54 67 69 73 75 76 71 68 68 68 70 72 72 73 73 73 72 72 72 72 73 72 72 71 70 70 69 69 69 69 69 70 70 70 70 69 65 66 66 66 66 67
65 60 59 52 46 55 52 55 69 70 73 73 74 70 69 70 70 72 72 72 72 72 73 72 72 73 74 74 73 72 72 71 70 69 69 70 70 70 70 70 70 70 68 66 66 66 65 65 64
MSLP
1014.30 1014.58 1014.35 1014.13 1014.26 1012.92 1011.23 1010.23 1009.62 1009.06 1008.80 1008.83 1008.82 1008.62 1008.46 1008.13 1008.01 1007.82 1007.91 1008.26 1008.54 1009.00 1009.77 1010.68 1011.28 1011.73 1012.21 1012.65 1013.06 1013.42 1013.78 1014.08 1014.30 1014.54 1014.82 1015.02 1015.17 1015.33 1015.49 1015.60 1015.59 1015.49 1015.49 1015.60 1015.78 1015.82 1015.63 1015.81 1015.95
1014.11 1014.44 1014.12 1013.51 1013.12 1012.09 1010.27 1009.63 1008.90 1008.42 1008.33 1008.38 1008.15 1008.05 1008.04 1007.51 1007.65 1007.28 1007.43 1008.05 1008.42 1008.80 1009.58 1010.13 1010.86 1011.35 1011.95 1012.46 1012.77 1013.15 1013.55 1013.86 1014.10 1014.37 1014.60 1014.83 1014.97 1015.10 1015.30 1015.31 1015.32 1015.30 1015.26 1015.27 1015.29 1015.46 1015.65 1015.68 1015.70
1014.02 1013.74 1013.16 1012.59 1012.13 1010.81 1009.47 1008.97 1008.39 1008.38 1008.33 1008.07 1007.66 1007.65 1007.46 1007.10 1007.29 1007.07 1007.00 1007.84 1008.48 1008.95 1009.38 1009.93 1010.57 1011.02 1011.59 1012.14 1012.56 1012.90 1013.16 1013.49 1013.79 1014.10 1014.39 1014.59 1014.74 1014.77 1014.84 1014.88 1014.98 1015.03 1015.07 1014.97 1015.07 1015.11 1015.33 1015.43 1015.36
1013.34 1013.13 1013.22 1012.53 1011.12 1010.55 1009.46 1008.66 1008.46 1007.93 1007.82 1007.89 1007.66 1007.20 1007.26 1006.86 1006.93 1007.00 1007.15 1007.81 1008.37 1008.75 1009.31 1009.78 1010.54 1010.95 1011.34 1011.72 1012.17 1012.61 1012.97 1013.27 1013.53 1013.87 1014.11 1014.34 1014.40 1014.54 1014.67 1014.71 1014.67 1014.72 1014.75 1014.76 1014.77 1014.72 1014.89 1015.05 1015.07
1012.92 1012.51 1012.13 1011.79 1010.88 1010.00 1009.23 1008.50 1008.47 1007.91 1007.91 1007.49 1007.55 1007.12 1006.85 1006.68 1006.95 1007.22 1007.66 1007.89 1007.90 1008.46 1008.92 1009.63 1010.15 1010.58 1010.91 1011.41 1011.99 1012.41 1012.79 1013.10 1013.34 1013.50 1013.73 1013.93 1014.15 1014.33 1014.44 1014.42 1014.43 1014.38 1014.46 1014.41 1014.43 1014.35 1014.50 1014.54 1014.71
1012.28 1012.46 1011.76 1010.90 1010.19 1009.56 1008.79 1008.17 1008.16 1007.68 1007.64 1007.41 1007.53 1007.17 1006.56 1006.69 1007.03 1007.11 1007.52 1007.77 1007.84 1008.22 1008.68 1009.16 1009.90 1010.45 1010.83 1011.23 1011.69 1012.26 1012.63 1012.97 1013.27 1013.42 1013.51 1013.58 1013.82 1014.02 1014.10 1014.18 1014.16 1014.08 1014.07 1014.01 1014.05 1014.28 1014.26 1014.40 1014.52
1011.85 1011.63 1011.11 1010.84 1009.75 1009.13 1008.20 1007.82 1007.77 1007.41 1007.34 1007.16 1007.17 1006.91 1006.54 1006.65 1006.92 1007.41 1007.70 1007.84 1008.00 1008.11 1008.62 1009.02 1009.47 1010.15 1010.82 1011.24 1011.44 1011.89 1012.32 1012.68 1013.04 1013.25 1013.34 1013.46 1013.66 1013.86 1013.97 1014.02 1013.96 1013.81 1013.76 1013.74 1013.82 1013.98 1014.09 1014.24 1014.36
1012.20 1011.56 1010.99 1010.47 1009.60 1008.46 1007.90 1008.01 1007.56 1007.38 1007.31 1007.31 1007.26 1006.63 1006.45 1006.51 1007.03 1007.41 1007.80 1007.93 1008.28 1008.35 1008.44 1008.72 1009.22 1009.63 1010.29 1010.88 1011.37 1011.72 1012.03 1012.39 1012.74 1013.01 1013.27 1013.46 1013.58 1013.65 1013.74 1013.77 1013.72 1013.65 1013.62 1013.60 1013.63 1013.68 1013.77 1013.86 1013.96
1012.24 1011.53 1009.99 1009.44 1009.19 1007.50 1007.87 1007.91 1008.17 1007.96 1007.38 1007.03 1007.02 1006.78 1006.62 1006.93 1007.32 1007.37 1007.59 1007.81 1007.80 1008.05 1008.36 1008.47 1008.82 1009.17 1009.72 1010.37 1010.91 1011.57 1011.90 1012.16 1012.46 1012.81 1013.09 1013.30 1013.11 1013.22 1013.42 1013.46 1013.61 1013.54 1013.51 1013.48 1013.43 1013.39 1013.43 1013.53 1013.53
1011.28 1010.62 1009.38 1008.33 1008.10 1007.76 1008.07 1008.15 1008.26 1007.97 1007.27 1006.27 1006.62 1006.51 1006.80 1006.80 1006.98 1006.97 1006.92 1006.74 1007.11 1007.14 1007.58 1007.96 1008.45 1009.02 1009.49 1010.20 1010.70 1011.10 1011.48 1011.74 1012.06 1012.40 1012.71 1012.81 1013.00 1013.13 1013.38 1013.41 1013.43 1013.38 1013.26 1013.14 1013.10 1013.14 1013.04 1013.09 1012.59
1010.11 1009.14 1008.53 1008.01 1007.85 1008.49 1008.17 1007.96 1008.02 1007.58 1006.49 1005.37 1005.91 1005.54 1005.61 1005.92 1006.26 1006.29 1006.02 1005.90 1005.45 1006.28 1007.06 1007.60 1008.26 1008.90 1009.56 1010.08 1010.51 1010.99 1011.41 1011.64 1012.01 1012.27 1012.55 1012.61 1012.80 1012.94 1013.09 1013.01 1012.96 1012.94 1013.03 1012.89 1012.86 1012.79 1012.53 1012.34 1012.30
1009.12 1008.39 1008.26 1007.46 1007.89 1008.37 1007.97 1007.97 1007.37 1007.56 1005.72 1005.53 1005.41 1005.41 1005.37 1005.00 1005.18 1005.38 1005.24 1005.15 1005.36 1005.72 1006.44 1007.52 1008.03 1008.64 1009.24 1009.71 1010.24 1010.69 1011.14 1011.52 1011.66 1011.84 1012.26 1012.36 1012.46 1012.62 1012.80 1012.68 1012.63 1012.84 1012.72 1012.73 1012.70 1012.53 1012.57 1012.40 1012.24
1008.41 1008.23 1007.67 1007.62 1008.05 1008.22 1008.15 1007.67 1007.42 1006.63 1004.68 1005.43 1005.21 1004.84 1004.57 1004.40 1004.27 1004.38 1004.54 1004.40 1004.83 1005.33 1006.03 1006.99 1007.65 1007.79 1008.49 1009.50 1010.00 1010.52 1010.88 1011.18 1011.25 1011.60 1011.83 1012.05 1012.16 1012.32 1012.45 1012.51 1012.47 1012.50 1012.37 1012.46 1012.45 1012.36 1012.30 1012.27 1012.13
1007.24 1007.85 1007.47 1007.39 1007.77 1007.61 1007.61 1006.59 1007.20 1005.70 1004.20 1004.87 1004.51 1003.99 1003.66 1003.59 1003.36 1003.74 1003.92 1003.76 1004.34 1004.58 1005.27 1006.47 1007.27 1007.86 1008.66 1009.14 1009.76 1010.25 1010.66 1010.81 1011.11 1011.29 1011.50 1011.84 1012.00 1012.08 1012.15 1012.19 1012.18 1012.14 1012.15 1012.27 1012.30 1012.17 1012.19 1012.06 1012.11
1007.69 1007.72 1007.44 1007.42 1007.25 1007.21 1007.20 1005.25 1005.74 1004.11 1004.34 1004.31 1003.72 1003.26 1003.00 1002.72 1002.69 1002.81 1002.63 1003.02 1003.12 1003.72 1004.84 1005.78 1006.81 1007.36 1008.06 1008.73 1009.47 1009.97 1010.19 1010.66 1010.85 1011.06 1011.35 1011.49 1011.71 1011.70 1011.86 1011.90 1011.91 1011.84 1012.01 1012.19 1012.19 1012.13 1012.09 1012.08 1011.99
1007.66 1007.39 1006.38 1006.04 1006.49 1006.55 1007.33 1003.13 1003.97 1003.66 1003.91 1003.50 1003.12 1002.70 1002.57 1002.03 1001.79 1001.77 1001.80 1002.31 1002.90 1003.68 1004.65 1005.33 1006.22 1007.08 1007.70 1008.50 1009.26 1009.65 1009.93 1010.31 1010.59 1010.78 1010.95 1010.96 1011.11 1011.28 1011.39 1011.41 1011.35 1011.46 1011.73 1011.77 1011.80 1011.81 1011.80 1011.73 1011.61
1006.76 1005.34 1005.64 1005.77 1005.97 1005.83 1005.77 1003.10 1003.19 1003.35 1003.42 1003.21 1002.47 1002.15 1001.95 1001.54 1001.13 1000.93 1001.31 1001.64 1002.23 1003.08 1004.01 1004.81 1005.99 1006.80 1007.41 1008.30 1008.92 1009.39 1009.96 1010.19 1010.34 1010.45 1010.34 1010.37 1010.60 1010.73 1010.81 1010.79 1010.89 1011.22 1011.37 1011.49 1011.55 1011.63 1011.67 1011.38 1011.43
1005.02 1005.50 1005.46 1005.22 1005.28 1004.97 1004.21 1003.08 1003.16 1003.13 1002.84 1002.65 1001.97 1001.56 1001.40 1000.95 1000.17 1000.37 1000.80 1001.22 1002.08 1002.81 1003.45 1004.01 1005.20 1006.36 1007.24 1008.02 1008.78 1009.36 1009.73 1009.88 1009.95 1009.96 1009.86 1010.00 1010.04 1010.21 1010.33 1010.46 1010.75 1010.88 1011.13 1011.23 1011.41 1011.35 1011.37 1011.21 1011.26
1005.40 1005.07 1004.49 1004.40 1004.72 1004.58 1003.34 1003.21 1003.25 1002.38 1002.26 1001.93 1001.41 1001.02 1000.57 1000.02 999.70 1000.56 1000.87 1001.52 1002.21 1002.84 1003.48 1004.25 1005.19 1006.44 1007.01 1007.67 1008.26 1008.94 1009.09 1009.34 1009.52 1009.61 1009.55 1009.52 1009.63 1009.67 1009.90 1010.25 1010.50 1010.72 1010.83 1010.79 1010.98 1010.99 1010.95 1010.93 1011.13
1005.38 1004.93 1004.58 1004.62 1004.54 1004.30 1003.55 1002.71 1002.57 1002.27 1001.60 1001.26 1000.72 1000.04 999.82 999.49 999.65 1000.41 1001.17 1002.20 1002.39 1003.03 1003.70 1004.21 1004.90 1006.00 1006.75 1007.32 1008.00 1008.42 1008.85 1009.10 1009.21 1009.30 1009.29 1009.19 1009.22 1009.31 1009.60 1009.89 1010.10 1010.31 1010.42 1010.57 1010.66 1010.79 1010.58 1010.63 1010.86
1004.35 1004.18 1004.72 1004.35 1004.30 1004.12 1003.77 1002.33 1001.99 1001.27 1000.97 1000.45 999.90 999.64 999.22 999.33 999.39 1000.17 1001.18 1002.08 1003.21 1003.28 1003.85 1004.35 1005.09 1005.97 1006.62 1007.36 1008.01 1008.59 1009.04 1009.08 1008.92 1008.92 1008.97 1009.07 1009.06 1009.16 1009.31 1009.45 1009.60 1009.83 1010.02 1010.01 1010.28 1010.47 1010.36 1010.09 1010.55
1003.10 1004.01 1004.47 1004.58 1004.70 1003.27 1003.59 1001.36 1001.36 1000.82 1000.15 999.43 998.74 998.78 998.46 998.95 999.48 1000.22 1001.11 1002.11 1002.99 1003.52 1004.02 1004.49 1005.27 1005.95 1006.72 1007.44 1007.84 1008.26 1008.41 1008.41 1008.60 1008.74 1008.94 1009.04 1009.07 1009.02 1008.96 1009.12 1009.34 1009.58 1009.78 1009.88 1009.98 1010.14 1010.08 1010.13 1010.11
1002.20 1003.82 1004.27 1004.56 1004.24 1003.90 1003.45 1002.71 1000.71 1000.52 999.12 998.12 997.90 997.79 998.21 998.61 999.30 1000.11 1001.06 1001.99 1002.85 1003.59 1004.05 1004.76 1005.45 1006.08 1006.82 1007.40 1007.76 1008.01 1008.25 1008.42 1008.55 1008.70 1008.85 1008.96 1009.02 1009.02 1009.09 1009.22 1009.28 1009.43 1009.49 1009.66 1009.80 1010.02 1010.14 1009.97 1010.00
1002.78 1003.35 1003.93 1004.30 1004.06 1003.00 1002.82 1002.55 1000.32 999.26 997.95 997.35 996.89 997.08 997.90 998.84 999.68 1000.43 1001.36 1002.12 1002.91 1003.61 1004.28 1004.91 1005.53 1006.24 1006.81 1007.46 1007.74 1007.84 1008.02 1008.22 1008.34 1008.50 1008.62 1008.72 1008.91 1009.09 1009.17 1009.13 1009.18 1009.26 1009.31 1009.39 1009.57 1009.81 1009.94 1009.93 1009.91
1001.99 1002.51 1003.00 1003.54 1003.21 1001.72 1001.88 1001.72 999.49 997.61 997.24 997.07 996.69 996.90 998.15 999.22 999.97 1000.71 1001.35 1001.93 1002.94 1003.63 1004.31 1004.98 1005.55 1006.18 1006.84 1007.30 1007.51 1007.68 1007.89 1008.11 1008.23 1008.39 1008.47 1008.58 1008.78 1008.97 1009.07 1009.12 1009.11 1009.05 1009.13 1009.17 1009.50 1009.69 1009.69 1009.75 1009.72
1000.26 1001.08 1001.00 1001.26 1001.22 1000.66 1000.91 1000.27 997.85 996.65 996.02 996.26 996.43 997.04 998.31 999.40 1000.18 1000.80 1001.61 1002.26 1002.85 1003.60 1004.31 1004.85 1005.44 1006.07 1006.70 1007.06 1007.32 1007.61 1007.83 1007.95 1008.20 1008.36 1008.40 1008.62 1008.67 1008.80 1009.09 1009.09 1009.07 1009.05 1009.05 1009.13 1009.51 1009.43 1009.43 1009.71 1009.72
999.23 999.53 1000.30 1000.25 1000.86 1000.22 999.85 998.86 997.31 996.32 995.90 995.74 996.08 997.21 998.40 999.34 1000.27 1000.87 1001.75 1002.52 1002.89 1003.59 1004.30 1004.78 1005.35 1005.94 1006.46 1006.88 1007.13 1007.44 1007.76 1008.11 1008.27 1008.44 1008.69 1008.72 1008.88 1008.94 1009.06 1009.08 1009.04 1009.04 1009.00 1009.21 1009.40 1009.35 1009.53 1009.66 1009.83
997.53 999.38 1000.06 1000.16 1000.02 999.58 998.65 997.95 996.22 995.38 995.08 995.35 996.03 997.05 998.25 999.49 1000.24 1001.10 1001.83 1002.58 1003.06 1003.58 1004.36 1004.91 1005.38 1005.79 1006.29 1006.71 1006.91 1007.22 1007.61 1008.06 1008.29 1008.43 1008.70 1008.77 1008.89 1008.97 1009.06 1009.16 1009.14 1009.12 1009.28 1009.53 1009.58 1009.66 1009.66 1009.72 1009.84
997.39 997.71 998.62 999.35 999.48 998.56 997.73 996.37 995.54 994.64 994.70 994.91 995.57 996.80 997.98 998.94 1000.05 1001.05 1001.95 1002.67 1003.13 1003.71 1004.26 1004.96 1005.37 1005.79 1006.26 1006.59 1006.86 1007.15 1007.51 1007.95 1008.21 1008.36 1008.69 1008.76 1008.86 1009.05 1009.15 1009.20 1009.26 1009.33 1009.46 1009.73 1009.63 1009.67 1009.73 1009.83 1009.90
996.24 996.61 997.58 997.95 998.86 998.26 997.49 995.88 995.05 994.85 994.67 995.05 995.47 996.49 997.98 999.13 1000.02 1000.93 1001.84 1002.43 1003.16 1003.70 1004.21 1004.83 1005.31 1005.67 1006.15 1006.47 1006.80 1007.10 1007.47 1007.82 1008.06 1008.30 1008.64 1008.75 1008.75 1008.97 1009.16 1009.20 1009.31 1009.51 1009.73 1009.88 1009.82 1009.91 1010.07 1010.19 1010.29
Wind_Speed
13 8 3 2 3 3 4 5 2 3 2 1 4 4 5 2 5 6 2 11 7 19 17 22 22 21 20 19 17 15 14 14 13 12 10 10 10 9 9 8 7 7 7 6 6 6 5 6 8
10 5 3 2 3 3 4 4 6 5 2 11 7 8 6 7 4 5 3 14 11 18 16 21 24 22 20 18 17 16 15 15 14 13 13 12 12 12 12 12 11 11 10 10 9 8 8 8 8
9 3 3 2 4 6 3 6 3 2 10 4 3 3 2 4 4 3 3 17 12 16 16 18 24 22 20 19 18 17 17 16 15 15 14 13 13 13 13 13 13 13 13 13 13 12 12 10 9
5 4 3 4 11 8 5 4 3 10 2 3 2 8 3 4 1 2 7 16 14 16 15 18 22 21 21 20 19 18 17 16 16 16 15 15 15 14 15 15 16 15 15 15 15 13 11 12 11
1 1 4 5 9 7 10 14 6 9 7 4 2 3 5 2 3 2 8 14 15 15 16 16 22 22 22 20 19 18 17 16 16 16 16 16 14 14 14 15 15 15 15 16 16 14 13 13 12
4 1 4 8 9 7 8 12 6 6 3 3 2 3 5 2 5 5 9 15 14 15 16 16 21 21 20 19 18 17 16 15 15 15 15 14 12 12 12 12 13 13 15 15 15 14 13 12 11
3 4 5 7 12 11 6 5 6 6 4 1 1 3 3 5 4 3 7 12 11 13 14 14 17 19 18 18 17 17 16 15 14 13 14 9 8 8 9 10 12 13 14 15 15 15 15 14 12
1 3 5 6 8 10 0 2 3 3 2 3 3 2 8 7 1 4 6 11 9 11 13 15 15 17 16 15 16 16 15 13 12 10 9 9 8 7 8 8 9 9 11 13 16 16 16 15 13
3 7 13 14 11 9 2 4 2 5 10 6 4 13 9 6 1 5 8 11 11 11 13 14 16 15 14 13 13 14 15 13 11 11 11 8 6 6 8 9 10 11 11 12 13 14 14 15 15
7 11 18 15 13 12 6 6 7 7 14 21 17 14 11 8 6 11 13 16 17 17 17 15 15 14 13 10 11 11 10 9 9 8 8 6 6 5 7 10 11 11 12 13 12 12 12 12 9
10 20 25 21 18 9 16 17 12 14 22 23 17 21 21 14 11 13 16 19 24 18 14 16 14 12 12 10 8 5 5 6 6 8 7 6 5 5 6 5 5 5 7 6 7 7 6 8 7
16 22 23 26 19 14 21 18 17 18 30 24 23 19 18 22 16 16 18 20 20 18 17 14 14 12 13 9 8 8 6 6 5 6 8 6 5 7 7 6 6 5 5 6 5 4 5 7 7
22 20 19 20 21 20 20 22 19 25 30 21 21 20 19 20 20 17 19 20 18 19 15 16 16 15 13 11 7 7 7 6 6 6 7 6 7 7 7 7 6 6 5 5 5 5 4 5 6
14 22 24 18 17 22 22 26 17 25 27 20 20 22 21 20 21 15 15 19 18 17 17 15 16 13 12 10 10 7 6 6 6 5 6 8 7 7 7 7 7 6 5 5 5 5 4 5 5
15 16 12 13 15 14 11 24 18 29 20 20 23 21 20 19 17 17 18 17 20 16 15 17 16 15 14 12 10 7 6 6 5 6 8 9 9 9 9 7 7 7 5 6 5 5 4 5 5
11 11 18 13 18 12 14 24 16 19 13 16 19 17 16 19 19 17 17 16 13 13 16 16 14 16 15 12 9 6 5 5 5 6 7 9 10 10 9 7 6 5 5 5 5 4 5 5 5
11 14 14 11 9 5 17 20 15 11 8 16 18 19 19 19 18 17 15 15 12 15 16 17 16 17 15 12 8 6 5 5 6 6 7 8 10 10 9 6 5 6 5 5 5 5 6 5 5
15 13 14 14 9 17 20 24 18 19 12 18 19 19 19 19 23 15 12 10 12 15 17 18 16 16 14 9 6 4 4 5 6 6 6 8 7 9 8 6 6 5 5 5 5 6 5 5 5
18 20 26 19 14 15 18 18 11 17 17 20 20 20 20 19 18 7 5 6 11 14 15 17 17 15 11 8 6 4 5 5 5 5 6 6 6 8 8 5 5 6 7 6 6 5 6 6 5
24 23 21 16 12 13 15 21 15 17 22 21 20 20 20 18 15 5 2 5 11 13 15 17 17 16 11 7 5 2 3 3 4 3 4 4 5 5 6 6 6 7 5 6 7 7 6 5 5
27 28 22 18 11 13 13 23 18 22 13 16 18 18 19 16 12 4 5 6 8 13 15 17 16 14 11 8 5 3 2 3 3 2 1 0 3 4 6 7 7 6 5 5 6 8 8 7 6
26 23 22 20 13 16 3 17 14 21 21 21 19 16 17 11 7 5 8 10 11 12 15 15 14 13 10 9 6 6 3 3 0 1 0 1 1 2 3 5 6 5 4 5 6 7 7 7 6
17 14 17 19 18 18 17 13 11 10 20 23 21 17 10 4 4 8 9 11 13 15 14 13 12 11 10 9 6 5 4 1 1 1 1 1 1 2 3 4 5 5 5 5 6 7 8 7 6
11 13 14 8 10 14 14 12 11 16 19 14 13 9 2 1 5 9 11 13 14 14 13 13 13 11 10 8 7 5 4 3 2 2 1 1 1 2 3 5 4 4 4 5 6 7 8 6 4
20 14 7 8 8 10 14 14 20 17 18 19 18 6 1 5 9 11 15 16 16 16 14 12 12 11 9 8 7 5 3 3 1 1 1 1 3 4 4 4 3 2 4 5 5 6 6 6 6
27 21 9 9 7 7 6 11 10 19 19 22 15 10 4 8 9 12 14 16 17 16 15 14 13 11 10 8 6 5 4 2 1 0 1 1 3 4 4 4 3 2 3 4 4 4 4 4 4
25 21 13 2 2 5 6 7 11 16 12 8 10 5 8 10 11 14 16 16 16 15 15 14 12 10 9 7 6 5 4 4 2 4 3 3 4 4 5 4 2 3 2 4 5 4 4 4 4
17 20 11 9 10 9 5 5 9 3 15 10 9 10 10 11 12 14 16 15 14 14 13 12 11 10 8 6 6 5 5 4 4 4 4 5 5 5 4 4 2 3 4 4 4 4 5 5 4
12 21 7 9 5 6 3 6 8 11 5 4 3 10 13 14 14 14 14 14 13 12 12 11 9 9 8 6 6 5 5 5 5 4 4 4 5 5 4 4 3 3 5 4 4 5 5 5 6
20 22 20 10 10 8 2 5 2 8 5 6 2 10 10 12 14 14 15 15 13 13 12 11 9 8 7 7 5 5 6 6 5 5 4 4 6 5 5 5 5 5 5 4 4 5 5 6 7
Wind_Direction
146 151 141 132 204 263 227 227 258 225 195 113 132 195 245 280 193 299 48 189 167 162 168 172 173 177 182 182 180 180 183 186 188 192 201 208 213 219 234 244 253 266 274 271 264 260 254 249 256
150 150 198 129 224 217 218 232 217 236 331 313 246 200 215 254 232 268 208 180 177 165 168 177 178 180 184 184 183 183 187 191 194 201 210 219 230 234 235 233 238 245 256 263 262 252 249 245 244
164 208 231 212 199 224 232 199 188 280 306 273 274 248 186 222 212 250 200 167 163 169 172 181 180 181 183 186 188 187 190 195 199 208 218 225 234 239 241 240 242 249 251 255 251 249 250 241 239
176 173 116 245 235 241 241 189 238 319 67 163 252 273 238 250 225 250 151 162 164 173 178 179 182 182 186 189 191 191 194 197 203 214 223 231 237 242 246 244 249 253 253 254 257 262 269 257 245
148 145 227 250 252 258 247 263 265 285 301 280 259 270 260 239 265 161 165 172 174 177 184 182 186 187 188 190 192 194 197 201 209 216 224 234 241 249 253 252 256 260 263 259 257 258 255 262 257
131 204 225 250 254 256 263 260 251 239 236 307 211 265 263 350 274 193 175 189 186 178 184 188 187 190 190 191 191 194 200 206 214 222 232 242 245 253 258 263 266 270 266 267 265 261 269 274 273
197 175 249 272 280 283 252 259 218 204 205 147 165 254 290 313 290 217 208 199 192 184 183 185 189 193 194 195 191 192 201 209 217 227 240 240 242 251 263 270 274 274 272 270 269 265 265 262 261
199 218 226 233 267 273 317 232 135 197 324 354 197 246 300 319 21 178 212 206 209 195 192 187 191 191 196 197 196 195 200 207 219 227 230 227 233 250 259 272 262 278 281 279 271 268 264 263 256
140 231 240 235 226 250 203 249 61 328 300 263 266 285 302 309 180 198 203 212 212 207 200 194 191 192 194 197 198 197 205 210 213 218 221 220 243 257 266 274 267 266 268 267 268 269 266 274 259
195 228 235 235 246 262 281 291 299 283 291 276 281 271 271 275 267 249 218 215 216 207 205 199 195 193 190 193 196 200 210 210 213 217 219 230 240 247 263 267 259 263 265 270 276 286 284 280 250
204 231 236 256 252 265 284 280 289 288 287 278 291 296 304 287 268 244 241 227 217 213 208 200 190 191 192 191 189 193 204 205 210 214 220 230 238 239 247 260 253 260 255 262 262 267 268 275 257
235 231 238 248 260 264 265 291 276 282 269 281 289 285 283 285 278 243 240 234 225 214 212 201 187 179 184 190 187 192 203 207 215 216 222 233 240 237 246 252 252 249 253 258 262 262 274 272 254
232 245 230 245 265 264 272 266 270 286 280 287 278 278 269 275 272 253 244 242 233 227 210 196 188 182 181 180 182 197 204 213 221 220 229 232 240 242 248 243 247 249 250 251 257 254 266 264 248
224 239 246 241 254 261 266 269 266 265 268 285 281 275 277 272 268 269 244 239 225 223 207 190 190 182 169 181 186 194 208 214 220 231 234 223 237 241 248 244 244 248 237 248 247 251 261 257 244
243 252 234 232 235 249 285 268 242 257 278 271 275 277 276 274 273 253 248 232 225 220 194 183 185 177 175 181 188 196 204 215 222 235 233 231 232 237 240 242 238 239 231 239 237 234 236 243 232
219 229 241 227 232 247 222 267 267 266 268 274 273 282 280 276 275 268 255 239 225 210 187 172 181 180 175 177 184 194 198 217 235 241 241 238 236 235 234 233 232 223 220 233 238 234 236 237 228
210 232 221 236 197 207 200 269 261 272 282 283 280 282 280 282 278 264 263 247 212 185 175 172 177 177 171 171 178 183 205 227 243 248 249 247 237 231 227 230 234 215 223 225 229 220 237 224 221
218 225 237 238 220 229 243 253 276 286 294 278 287 283 278 273 271 286 269 240 188 177 174 166 170 165 162 157 156 170 218 242 245 251 251 244 233 222 217 222 228 221 223 220 212 227 213 233 218
253 252 246 242 222 245 255 272 276 292 292 284 286 281 276 271 282 291 298 202 179 178 169 161 155 159 155 153 157 192 223 240 238 241 254 244 225 211 213 214 220 212 219 223 215 221 222 215 197
231 244 243 250 247 253 281 277 288 282 279 279 280 284 276 283 281 281 167 200 183 170 166 159 153 157 162 154 152 162 197 230 271 266 265 237 220 216 215 207 213 211 215 210 208 210 209 217 202
223 230 237 245 264 262 278 278 274 277 280 279 274 273 274 269 283 243 152 164 184 165 160 154 150 154 156 149 134 144 212 231 235 220 204 78 228 221 226 213 208 206 212 214 206 208 211 197 202
231 220 242 246 254 260 244 285 274 283 284 276 280 274 268 264 235 170 151 162 170 157 153 145 146 150 153 154 160 183 209 245 230 296 339 99 164 191 199 208 197 206 203 204 200 197 204 207 195
237 220 228 235 239 264 255 268 281 276 274 274 273 267 271 304 209 155 158 154 157 153 147 144 143 150 151 159 175 182 203 221 176 190 200 138 131 139 170 185 181 190 200 200 197 189 203 207 212
182 215 209 221 237 246 251 245 277 263 256 275 266 250 350 8 125 135 144 145 148 149 145 145 149 152 151 163 173 189 208 171 191 202 205 192 146 128 172 151 161 177 200 209 196 199 205 215 238
189 179 174 207 217 256 248 233 244 262 248 255 263 289 56 135 138 149 150 148 150 152 150 153 156 151 159 174 179 194 171 165 202 246 244 178 152 170 159 148 162 193 200 188 180 192 200 212 236
187 185 188 194 196 223 161 213 248 242 254 244 250 281 187 154 151 149 151 153 154 155 156 161 158 153 169 173 180 173 146 150 153 101 63 110 166 155 136 142 139 127 178 162 150 177 184 183 222
189 204 191 208 36 254 163 252 281 247 257 236 236 207 177 157 159 151 156 164 158 158 167 163 157 162 166 170 173 162 153 152 147 86 98 148 140 143 138 133 127 139 142 120 137 146 152 171 166
189 172 188 211 211 233 190 260 251 236 226 212 200 193 162 160 150 159 165 166 164 163 164 159 163 165 164 172 171 164 155 166 137 118 133 140 130 139 145 137 123 105 87 94 126 133 150 150 132
176 186 185 192 224 209 244 236 208 237 218 196 180 163 166 153 158 165 169 167 161 163 162 161 161 160 160 173 166 163 155 164 142 134 141 140 130 134 158 156 152 122 103 96 103 115 129 132 139
197 187 183 188 190 213 261 250 24 257 272 251 184 135 146 157 158 164 169 163 165 168 163 163 159 171 163 163 164 160 150 157 148 143 148 143 134 137 154 157 148 127 106 94 94 108 124 125 115